Location: Newark
(25.4800°N, 85.7200°E)
Time: 16:43:46
(UTC+00:00)

Vanguard 3 - All Passes

Search period start: 23 August 2019 00:00
Search period end: 02 September 2019 00:00
Orbit: 508 x 3263 km, 33.3° (Epoch: 23 August)

Date Brightness Start Highest point End Pass type
(mag) Time Alt. Az. Time Alt. Az. Time Alt. Az.
23 Aug - 06:41:00 10° S 06:51:31 21° SSE 06:59:12 10° ESE daylight
23 Aug - 08:53:38 10° SW 09:06:15 53° SSE 09:13:20 10° ENE daylight
23 Aug - 11:10:13 10° W 11:19:07 62° NNW 11:24:13 10° ENE daylight
23 Aug - 13:26:44 10° WNW 13:31:27 30° N 13:34:57 10° ENE visible
23 Aug - 15:39:41 10° WNW 15:43:27 61° NNE 15:47:15 10° ESE visible
23 Aug - 17:51:48 10° WSW 17:54:50 21° SSW 17:58:38 10° SSE night (unlit)
24 Aug - 05:28:41 10° S 05:35:13 13° SSE 05:40:52 10° SE daylight
24 Aug - 07:37:26 10° SSW 07:51:00 38° SSE 07:59:21 10° E daylight
24 Aug - 09:53:04 10° WSW 10:04:49 89° SSE 10:11:09 10° ENE daylight
24 Aug - 12:10:34 10° W 12:17:22 39° NNW 12:21:43 10° ENE daylight
24 Aug - 14:25:36 10° WNW 14:29:46 36° N 14:33:12 10° E visible
24 Aug - 16:37:42 10° W 16:41:12 43° SSW 16:45:12 10° SE night (unlit)
25 Aug - 06:22:06 10° SSW 06:35:10 27° SSE 06:44:20 10° E daylight
25 Aug - 08:35:56 10° SW 08:50:02 64° SSE 08:57:48 10° ENE daylight
25 Aug - 10:53:28 10° W 11:03:10 58° NNW 11:08:40 10° ENE daylight
25 Aug - 13:10:28 10° WNW 13:15:48 33° N 13:19:33 10° ENE visible
25 Aug - 15:23:47 10° WNW 15:27:47 81° NNE 15:31:28 10° ESE visible
25 Aug - 17:37:02 10° WSW 17:39:04 14° SSW 17:41:20 10° S night (unlit)
26 Aug - 05:08:25 10° S 05:18:48 18° SSE 05:27:16 10° ESE daylight
26 Aug - 07:19:16 10° SW 07:34:37 46° SSE 07:43:55 10° E daylight
26 Aug - 09:35:51 10° WSW 09:48:41 82° NNW 09:55:34 10° ENE daylight
26 Aug - 11:54:04 10° WNW 12:01:37 41° N 12:06:16 10° ENE daylight
26 Aug - 14:09:26 10° WNW 14:14:09 45° NNE 14:17:44 10° E visible
26 Aug - 16:22:09 10° W 16:25:27 30° SSW 16:28:55 10° SSE night (unlit)
27 Aug - 06:03:30 10° SSW 06:18:38 33° SSE 06:29:06 10° E daylight
27 Aug - 08:18:17 10° SW 08:33:42 74° SSE 08:42:11 10° ENE daylight
27 Aug - 10:36:37 10° W 10:47:13 55° NNW 10:53:08 10° ENE daylight
27 Aug - 12:54:04 10° WNW 13:00:08 38° N 13:04:11 10° ENE visible
27 Aug - 15:07:49 10° WNW 15:12:05 76° SSW 15:15:43 10° ESE visible
28 Aug - 04:49:10 10° S 05:02:12 22° SE 05:12:38 10° E daylight
28 Aug - 07:01:15 10° SW 07:18:06 55° SSE 07:28:18 10° ENE daylight
28 Aug - 09:18:37 10° WSW 09:32:28 76° NNW 09:39:57 10° ENE daylight
28 Aug - 11:37:26 10° WNW 11:45:49 43° N 11:50:51 10° ENE daylight
28 Aug - 13:53:07 10° WNW 13:58:29 56° NNE 14:02:16 10° E visible
28 Aug - 16:06:40 10° W 16:09:39 21° SSW 16:12:34 10° SSE visible
29 Aug - 03:38:01 10° SSE 03:45:24 13° SE 03:52:14 10° ESE daylight
29 Aug - 05:45:10 10° SSW 06:01:57 40° SSE 06:13:35 10° E daylight
29 Aug - 08:00:41 10° WSW 08:17:15 82° SSE 08:26:29 10° ENE daylight
29 Aug - 10:19:42 10° W 10:31:13 54° NNW 10:37:36 10° ENE daylight
29 Aug - 12:37:31 10° WNW 12:44:27 44° N 12:48:49 10° E daylight
29 Aug - 14:51:47 10° WNW 14:56:20 56° SSW 14:59:56 10° SE visible
30 Aug - 04:30:25 10° SSW 04:45:25 28° SE 04:57:26 10° E daylight
30 Aug - 06:43:21 10° SW 07:01:25 63° SSE 07:12:33 10° ENE daylight
30 Aug - 09:01:23 10° WSW 09:16:12 71° NNW 09:24:18 10° ENE daylight
30 Aug - 11:20:41 10° WNW 11:30:01 45° N 11:35:26 10° ENE daylight
30 Aug - 13:36:44 10° WNW 13:42:47 71° NNE 13:46:48 10° ESE visible
30 Aug - 15:51:19 10° WSW 15:53:46 16° SW 15:56:03 10° S visible
31 Aug - 03:18:00 10° S 03:28:40 17° SE 03:38:26 10° ESE daylight
31 Aug - 05:27:02 10° SSW 05:45:06 46° SSE 05:57:51 10° E daylight
31 Aug - 07:43:08 10° WSW 08:00:41 90° SSE 08:10:43 10° ENE daylight
31 Aug - 10:02:42 10° W 10:15:10 54° NNW 10:22:04 10° ENE daylight
31 Aug - 12:20:51 10° WNW 12:28:44 51° N 12:33:26 10° E daylight
31 Aug - 14:35:42 10° WNW 14:40:31 43° SSW 14:44:07 10° SE visible
01 Sep - 04:12:04 10° SSW 04:28:26 33° SE 04:41:53 10° E daylight
01 Sep - 06:25:35 10° SW 06:44:36 70° SSE 06:56:41 10° ENE daylight
01 Sep - 08:44:07 10° W 08:59:51 67° NNW 09:08:37 10° ENE daylight
01 Sep - 11:03:48 10° WNW 11:14:09 49° N 11:20:01 10° ENE daylight
01 Sep - 13:20:14 10° WNW 13:27:01 87° NNE 13:31:15 10° ESE visible
01 Sep - 15:36:18 10° WSW 15:37:46 12° SW 15:39:09 10° SSW visible
